Regional Weather Roundup
Issued by NWS Portland, ME

Home | Current Version | Previous Version | Text Only | Print | Product List | Glossary On
Versions: 1 2 3 4 5 6 7 8 9 10 11 12 13 14 15 16 17 18 19 20 21 22 23 24 25 26 27 28 29 30 31 32 33 34 35 36 37 38 39 40 41 42 43 44 45 46 47 48 49 50
000
ASUS41 KGYX 100410
RWRGYX
WEATHER ROUNDUP FOR MAINE AND NEW HAMPSHIRE
NATIONAL WEATHER SERVICE GRAY ME
1100 PM EST TUE FEB 09 2016

MEZ002-005-006-010-012-015-018-020-021-024-026-027-029-100500-
MAINE

CITY           SKY/WX    TMP DP  RH WIND       PRES   REMARKS
PORTLAND       CLOUDY    15  12  88 CALM      29.61F
SANFORD        CLEAR      3  -2  78 CALM      29.60F
BAR HARBOR     CLOUDY    21  19  93 W5        29.57R
WISCASSET      CLEAR     11   7  84 CALM      29.62F
ROCKLAND       CLOUDY    21  15  78 NW7       29.60
FRYEBURG       CLOUDY    19  14  81 CALM      29.59R
LEWISTONAUBURN CLOUDY    12   7  79 CALM      29.58F
AUGUSTA        PTCLDY    13  10  88 CALM      29.60R
WATERVILLE     FLURRIES  10   8  92 CALM      29.56R
BANGOR         FLURRIES  19  16  88 NW5       29.58R
GREENVILLE       N/A      9   6  88 NW3       29.46F
MILLINOCKET    CLOUDY    19  13  77 NW3       29.55F
HOULTON        CLOUDY    15  13  91 CALM      29.52F
PRESQUE ISLE   LGT SNOW  16  13  88 N7        29.55F FOG
FRENCHVILLE    LGT SNOW  15  11  83 N5        29.51F FOG
CARIBOU        LGT SNOW  16  12  84 N6        29.52F FOG
$$

NHZ002-005-008-009-011-012-014-100500-
NEW HAMPSHIRE

CITY           SKY/WX    TMP DP  RH WIND       PRES   REMARKS
PORTSMOUTH     PTCLDY    17  13  84 NW2       29.60F
ROCHESTER      CLEAR     14  11  87 W3        29.60S
NASHUA         MOCLDY    12   9  85 CALM      29.62F
MANCHESTER     CLOUDY    19  15  84 CALM      29.60F
CONCORD        CLOUDY    14  10  84 CALM      29.60F
LACONIA        CLOUDY    12   9  85 CALM      29.59S
PLYMOUTH       CLOUDY    17  15  95 CALM      29.58S
BERLIN         CLOUDY    19  13  77 N5        29.51S
WHITEFIELD     PTCLDY    17  14  88 CALM      29.51F
JAFFREY        CLOUDY    14  11  87 CALM      29.55F
KEENE          CLOUDY    19  14  79 CALM      29.58F
LEBANON        CLOUDY    24  19  81 CALM      29.56S
MT WASHINGTON  BLWGSNOW   7   7 100 W28         N/A  VSB 0   WCI -16
$$

VTZ005-007-008-100500-
VERMONT

CITY           SKY/WX    TMP DP  RH WIND       PRES   REMARKS
ST JOHNSBURY     N/A     17  13  84 MISG      29.53S
MONTPELIER     CLOUDY    20  16  84 CALM      29.55S
BURLINGTON     FLURRIES  25  21  85 S6        29.55S
$$

MAZ007-012-024-CTZ003-RIZ002-NYZ038-NYZ072-100500-
SOUTHERN NEW ENGLAND AND NY

CITY           SKY/WX    TMP DP  RH WIND       PRES   REMARKS
BOSTON         CLEAR     23  15  71 CALM      29.62F
WORCESTER      CLOUDY    20  16  84 SW5       29.55F
NANTUCKET      CLOUDY    33  27  78 CALM      29.61S
PROVIDENCE     PTCLDY    21  17  84 CALM      29.62F
HARTFORD       FLURRIES  25  20  81 CALM      29.60F
ALBANY         FLURRIES  28  23  81 CALM      29.58F
NEW YORK CITY  CLOUDY    33  25  72 SE5       29.61F
$$

ANZ081-ANZ082-ANZ150-NHZ014-MEZ023>029-100500-
COASTAL MARINE OBSERVATIONS

STATION/POSITION TIME  TEMP    WIND        PRES    WAVE
                       AIR SEA DIR/SP/G            HT/PER
                 (UTC) (F)     (DEG/KT/KT) (MB)    (FT/S)
MOUNT DESERT ROC 0400   26     280/  9/ 14 1001.3R
MATINICUS ROCK   0400          310/ 11/ 13 1001.9R
ISLE OF SHOALS   0400   28     310/  5/  6 1001.9F
JEFFREYS LEDGE   0304      44                N/A     7/13
CASHES LEDGE BUO 0350   29 43  290/ 12/ 19 1001.3F   7/12
GEORGES BANK BUO 0350   39 46              1000.7R   8/12
$$

.............KEY..............
   WCI - WIND CHILL
   TC  - TEMPERATURE IN CELSIUS
   VSB - VISIBILITY IN MILES
   HX  - HEAT INDEX
   FAIR- INDICATES FEW OR NO CLOUDS BELOW 12,000 FT, WITH NO
         SIGNIFICANT WEATHER AND/OR OBSTRUCTIONS TO VISIBILITY.





USA.gov is the U.S. government's official web portal to all federal, state and local government web resources and services.